Location: West Cummington
(42.4920°N, 72.9680°W)
Time: 13:19:09
(UTC-04:00)

ATLAS 2AS CENTAUR R/B - Visible Passes

Search period start: 26 September 2016 00:00
Search period end: 06 October 2016 00:00
Orbit: 904 x 1308 km, 63.7° (Epoch: 18 September)

Date Brightness Start Highest point End Pass type
(mag) Time Alt. Az. Time Alt. Az. Time Alt. Az.
26 Sep 4.9 01:29:37 21° ENE 01:29:37 21° ENE 01:32:17 10° NE visible
26 Sep 3.4 03:17:04 54° NNW 03:17:04 54° NNW 03:23:55 10° NNE visible
26 Sep 4.5 05:04:31 15° WNW 05:08:44 22° NNW 05:14:51 10° NNE visible
27 Sep 5.4 00:46:22 11° ENE 00:46:22 11° ENE 00:46:40 10° ENE visible
27 Sep 3.9 02:33:48 45° NNE 02:33:48 45° NNE 02:39:05 10° NE visible
27 Sep 4.2 04:21:15 25° NW 04:23:11 28° NNW 04:29:58 10° NNE visible
27 Sep 4.9 06:12:39 10° NW 06:17:20 16° N 06:22:03 10° NNE visible
28 Sep 4.5 01:50:32 29° NE 01:50:32 29° NE 01:54:10 10° NE visible
28 Sep 3.9 03:37:58 36° NW 03:37:58 36° NW 03:45:11 10° NNE visible
28 Sep 4.9 05:26:29 10° NW 05:31:31 17° NNW 05:36:36 10° NNE visible
29 Sep 5.1 01:07:14 18° NE 01:07:14 18° NE 01:09:05 10° NE visible
29 Sep 3.9 02:54:40 40° N 02:54:40 40° N 03:00:25 10° NNE visible
29 Sep 4.7 04:42:06 15° NW 04:45:46 20° NNW 04:51:28 10° NNE visible
30 Sep 4.3 02:11:20 34° NNE 02:11:20 34° NNE 02:15:39 10° NNE visible
30 Sep 4.4 03:58:46 23° NW 04:00:09 24° NNW 04:06:32 10° NNE visible
30 Sep 5.0 05:49:50 10° NW 05:54:30 16° N 05:59:09 10° NE visible
01 Oct 4.8 01:28:00 24° NE 01:28:00 24° NE 01:30:47 10° NE visible
01 Oct 4.2 03:15:26 30° NNW 03:15:26 30° NNW 03:21:43 10° NNE visible
01 Oct 5.0 05:03:51 10° NW 05:08:39 16° N 05:13:28 10° NNE visible
02 Oct 5.2 00:44:38 15° NE 00:44:38 15° NE 00:45:49 10° NE visible
02 Oct 4.4 02:32:04 32° N 02:32:04 32° N 02:36:56 10° NNE visible
02 Oct 4.8 04:19:30 14° NW 04:22:51 18° NNW 04:28:10 10° NNE visible
02 Oct 5.0 06:12:16 10° NNW 06:17:27 18° NNE 06:22:35 10° NE visible
03 Oct 4.7 01:48:42 27° NNE 01:48:42 27° NNE 01:52:10 10° NNE visible
03 Oct 4.6 03:36:08 21° NNW 03:37:09 21° NNW 03:43:07 10° NNE visible
03 Oct 5.1 05:26:53 10° NNW 05:31:38 16° N 05:36:23 10° NE visible
04 Oct 5.0 01:05:19 19° NNE 01:05:19 19° NNE 01:07:21 10° NE visible
04 Oct 4.5 02:52:45 26° NNW 02:52:45 26° NNW 02:58:15 10° NNE visible
04 Oct 5.1 04:41:07 10° NW 04:45:48 16° N 04:50:28 10° NNE visible
05 Oct 5.4 00:21:56 12° NE 00:21:56 12° NE 00:22:28 10° NE visible
05 Oct 4.7 02:09:21 26° N 02:09:21 26° N 02:13:27 10° NNE visible
05 Oct 4.9 03:56:47 14° NW 03:59:58 17° N 04:04:57 10° NNE visible
05 Oct 5.1 05:49:00 10° NNW 05:54:33 19° NNE 06:00:00 10° ENE visible
